EW0871 Weather Reports


time (UTC)temp
C
wind
direction
speed
KPH
gust
KPH
rain 1hr
cm
rain 24hr
cm
rain mn
cm
humidity
%
barometer
mb
20260508220505 17 187 6.4 11.3 0.00 0.00 0.00 60 1016.7
20260508220005 17 188 4.8 12.9 0.00 0.00 0.00 60 1016.6
20260508215506 17 186 6.4 12.9 0.00 0.00 0.00 59 1016.6
20260508214506 17 181 6.4 14.5 0.00 0.00 0.00 59 1016.6
20260508214006 18 174 8.0 14.5 0.00 0.00 0.00 58 1016.7
20260508213505 18 182 6.4 12.9 0.00 0.00 0.00 57 1016.8
20260508213006 18 182 4.8 12.9 0.00 0.00 0.00 57 1016.7
20260508212006 18 194 4.8 12.9 0.00 0.00 0.00 57 1016.5
20260508211506 18 181 4.8 12.9 0.00 0.00 0.00 57 1016.5
20260508211006 18 178 4.8 11.3 0.00 0.00 0.00 57 1016.5
20260508205505 18 181 6.4 11.3 0.00 0.00 0.00 55 1016.4
20260508205006 18 191 3.2 11.3 0.00 0.00 0.00 55 1016.4
20260508204505 19 201 0.0 4.8 0.00 0.00 0.00 54 1016.6
20260508204006 19 0 0.0 4.8 0.00 0.00 0.00 55 1016.5
20260508203506 19 219 3.2 16.1 0.00 0.00 0.00 53 1016.5
20260508203005 19 214 3.2 16.1 0.00 0.00 0.00 52 1016.7
20260508202506 20 215 4.8 14.5 0.00 0.00 0.00 50 1016.8
20260508202006 20 209 3.2 12.9 0.00 0.00 0.00 53 1016.8
20260508201506 20 202 1.6 12.9 0.00 0.00 0.00 55 1016.7
20260508201006 20 209 6.4 12.9 0.00 0.00 0.00 52 1016.7
20260508200506 19 216 3.2 11.3 0.00 0.00 0.00 53 1016.7
20260508200006 19 222 3.2 16.1 0.00 0.00 0.00 54 1016.8
20260508195505 19 219 6.4 16.1 0.00 0.00 0.00 53 1017.1
20260508195006 19 210 3.2 9.7 0.00 0.00 0.00 54 1017.1
20260508194505 19 0 0.0 8.0 0.00 0.00 0.00 56 1017.2
20260508194006 19 198 0.0 8.0 0.00 0.00 0.00 55 1017.4
20260508193506 19 226 4.8 8.0 0.00 0.00 0.00 52 1017.4
20260508193006 19 219 0.0 8.0 0.00 0.00 0.00 53 1017.6
20260508192506 20 194 0.0 8.0 0.00 0.00 0.00 53 1017.7
20260508192006 20 0 0.0 8.0 0.00 0.00 0.00 53 1017.7
20260508191506 20 193 3.2 17.7 0.00 0.00 0.00 54 1017.8
20260508191005 20 199 0.0 17.7 0.00 0.00 0.00 55 1017.7
20260508190505 19 196 3.2 16.1 0.00 0.00 0.00 53 1017.8
20260508185505 18 203 6.4 14.5 0.00 0.00 0.00 53 1018.1
20260508185006 18 214 0.0 9.7 0.00 0.00 0.00 54 1018.3
20260508184505 18 208 1.6 14.5 0.00 0.00 0.00 54 1018.3
20260508184006 18 209 6.4 14.5 0.00 0.00 0.00 52 1018.3
20260508183505 19 209 1.6 12.9 0.00 0.00 0.00 53 1018.3
20260508183006 18 190 1.6 12.9 0.00 0.00 0.00 55 1018.4
20260508182506 18 193 3.2 19.3 0.00 0.00 0.00 52 1018.3
20260508181505 20 0 0.0 11.3 0.00 0.00 0.00 53 1018.7
20260508181006 20 185 4.8 11.3 0.00 0.00 0.00 52 1018.7
20260508180505 20 196 0.0 14.5 0.00 0.00 0.00 56 1018.7
20260508180006 20 202 9.7 14.5 0.00 0.00 0.00 50 1018.6
20260508175505 19 213 1.6 8.0 0.00 0.00 0.00 58 1018.8
20260508175006 18 205 3.2 11.3 0.00 0.00 0.00 52 1018.8
20260508174505 18 209 3.2 16.1 0.00 0.00 0.00 54 1019.0
20260508174006 18 201 1.6 16.1 0.00 0.00 0.00 56 1019.0
20260508173005 18 198 3.2 11.3 0.00 0.00 0.00 56 1019.0
20260508172011 17 197 3.2 12.9 0.00 0.00 0.00 55 1019.0
20260508171509 18 209 3.2 12.9 0.00 0.00 0.00 55 1019.1
20260508170506 18 175 0.0 9.7 0.00 0.00 0.00 54 1019.3
20260508170007 18 172 6.4 9.7 0.00 0.00 0.00 52 1019.2
20260508164506 18 168 1.6 9.7 0.00 0.00 0.00 50 1019.5
20260508164005 18 71 1.6 4.8 0.00 0.00 0.00 51 1019.6
20260508163505 19 123 1.6 6.4 0.00 0.00 0.00 55 1019.9
20260508163006 18 204 1.6 6.4 0.00 0.00 0.00 50 1019.9
20260508162505 18 205 0.0 9.7 0.00 0.00 0.00 56 1020.1
20260508162006 18 210 0.0 9.7 0.00 0.00 0.00 53 1020.0
20260508161505 18 223 1.6 9.7 0.00 0.00 0.00 52 1020.0
20260508161006 17 0 0.0 6.4 0.00 0.00 0.00 53 1020.1
20260508154506 17 177 1.6 6.4 0.00 0.00 0.00 54 1020.4
20260508154005 16 0 0.0 9.7 0.00 0.00 0.00 54 1020.5
20260508153505 16 76 4.8 9.7 0.00 0.00 0.00 55 1020.6
20260508153006 16 133 3.2 9.7 0.00 0.00 0.00 54 1020.6
20260508152505 16 146 3.2 8.0 0.00 0.00 0.00 54 1020.6
20260508151505 15 21 1.6 6.4 0.00 0.00 0.00 58 1020.8
20260508151006 15 20 1.6 6.4 0.00 0.00 0.00 55 1020.6
20260508145505 14 21 4.8 9.7 0.00 0.00 0.00 57 1020.7
20260508145005 14 29 3.2 6.4 0.00 0.00 0.00 54 1020.7
20260508144505 14 0 0.0 6.4 0.00 0.00 0.00 58 1020.6
20260508144006 14 46 1.6 6.4 0.00 0.00 0.00 57 1020.7
20260508143505 14 21 1.6 6.4 0.00 0.00 0.00 59 1020.7
20260508143009 14 8 1.6 6.4 0.00 0.00 0.00 53 1020.7
20260508142005 13 0 0.0 4.8 0.00 0.00 0.00 60 1020.9
20260508141505 13 168 1.6 4.8 0.00 0.00 0.00 60 1020.9
20260508141005 13 0 0.0 1.6 0.00 0.00 0.00 63 1020.9
20260508140505 12 21 1.6 4.8 0.00 0.00 0.00 66 1020.9
20260508135505 12 11 3.2 6.4 0.00 0.00 0.00 73 1021.0
20260508135005 11 0 0.0 8.0 0.00 0.00 0.00 77 1020.9
20260508134509 11 10 1.6 8.0 0.00 0.00 0.00 81 1020.9
20260508134006 11 8 3.2 6.4 0.00 0.00 0.00 86 1021.0
20260508133505 11 359 0.0 4.8 0.00 0.00 0.00 87 1021.1
20260508132505 10 0 0.0 0.0 0.00 0.03 0.00 91 1021.1
20260508132006 10 0 0.0 4.8 0.00 0.03 0.00 92 1021.1
20260508131505 9 0 0.0 4.8 0.00 0.03 0.00 93 1021.1
20260508131005 9 10 1.6 4.8 0.00 0.03 0.00 94 1021.0
20260508130505 8 8 1.6 4.8 0.00 0.03 0.00 94 1020.9
20260508130006 8 7 1.6 3.2 0.00 0.03 0.00 95 1021.1
20260508125006 8 0 0.0 0.0 0.00 0.03 0.00 95 1020.9
20260508124505 8 0 0.0 0.0 0.00 0.03 0.00 96 1020.9
20260508124005 8 0 0.0 0.0 0.00 0.03 0.00 96 1020.8
20260508123505 7 0 0.0 0.0 0.00 0.03 0.00 96 1020.8
20260508123005 7 0 0.0 0.0 0.00 0.03 0.00 96 1020.8
20260508122505 7 0 0.0 0.0 0.00 0.03 0.00 96 1020.8
20260508122005 7 0 0.0 0.0 0.00 0.05 0.00 96 1020.7
20260508121505 7 0 0.0 0.0 0.00 0.05 0.00 96 1020.6
20260508121006 7 0 0.0 0.0 0.00 0.05 0.00 96 1020.5
20260508120505 7 0 0.0 0.0 0.00 0.05 0.00 96 1020.4
20260508120005 6 0 0.0 0.0 0.00 0.05 0.00 96 1020.4
20260508115005 6 0 0.0 0.0 0.00 0.08 0.00 96 1020.4
20260508114506 6 0 0.0 0.0 0.00 0.08 0.00 95 1020.3
20260508114005 6 0 0.0 0.0 0.00 0.08 0.00 95 1020.2
20260508113505 6 0 0.0 0.0 0.00 0.10 0.00 96 1020.2
20260508112505 5 0 0.0 0.0 0.00 0.15 0.00 95 1020.0
20260508112006 5 0 0.0 0.0 0.00 0.15 0.00 95 1019.8
20260508111505 5 0 0.0 0.0 0.00 0.15 0.00 95 1019.6
20260508110505 5 0 0.0 0.0 0.00 0.20 0.00 95 1019.5
20260508110005 5 0 0.0 0.0 0.00 0.23 0.00 95 1019.6
20260508105505 5 0 0.0 0.0 0.00 0.23 0.00 95 1019.6
20260508105005 5 0 0.0 0.0 0.00 0.28 0.00 95 1019.5
20260508104505 5 0 0.0 0.0 0.00 0.33 0.00 95 1019.4
20260508104005 5 0 0.0 0.0 0.00 0.36 0.00 94 1019.4
20260508103505 6 0 0.0 0.0 0.00 0.36 0.00 94 1019.4
20260508103005 6 0 0.0 0.0 0.00 0.36 0.00 94 1019.2
20260508102505 6 0 0.0 0.0 0.00 0.36 0.00 94 1019.2
20260508102005 6 0 0.0 0.0 0.00 0.36 0.00 94 1019.1
20260508101505 6 0 0.0 0.0 0.00 0.36 0.00 94 1019.0
20260508101005 6 0 0.0 0.0 0.00 0.36 0.00 94 1019.0
20260508100505 6 0 0.0 0.0 0.00 0.36 0.00 94 1018.9
20260508095505 6 0 0.0 0.0 0.00 0.36 0.00 94 1018.7
20260508095005 6 0 0.0 0.0 0.00 0.36 0.00 94 1018.5
20260508094505 6 0 0.0 0.0 0.00 0.36 0.00 94 1018.6
20260508094005 6 0 0.0 0.0 0.00 0.36 0.00 93 1018.5
20260508093505 7 0 0.0 0.0 0.00 0.36 0.00 93 1018.5
20260508093005 7 0 0.0 0.0 0.00 0.36 0.00 93 1018.4
20260508092505 7 0 0.0 0.0 0.00 0.36 0.00 93 1018.5
20260508092005 7 0 0.0 0.0 0.00 0.36 0.00 93 1018.5
20260508091505 7 0 0.0 0.0 0.00 0.36 0.00 93 1018.4
20260508090505 7 0 0.0 0.0 0.00 0.36 0.00 93 1018.3
20260508085505 7 0 0.0 0.0 0.00 0.36 0.00 93 1018.5
20260508085005 7 0 0.0 0.0 0.00 0.36 0.00 92 1018.4
20260508084505 7 0 0.0 0.0 0.00 0.36 0.00 93 1018.5
20260508084005 7 0 0.0 0.0 0.00 0.36 0.00 93 1018.5
20260508083505 7 0 0.0 0.0 0.00 0.36 0.00 92 1018.4
20260508083005 7 0 0.0 0.0 0.00 0.36 0.00 92 1018.3
20260508082505 8 0 0.0 0.0 0.00 0.36 0.00 92 1018.2
20260508082005 8 0 0.0 0.0 0.00 0.36 0.00 92 1018.1
20260508081505 8 0 0.0 0.0 0.00 0.36 0.00 92 1018.1
20260508081006 8 0 0.0 0.0 0.00 0.36 0.00 91 1018.1
20260508080505 8 0 0.0 0.0 0.00 0.36 0.00 91 1018.0
20260508080005 8 0 0.0 0.0 0.00 0.38 0.00 91 1018.0
20260508075505 8 0 0.0 0.0 0.00 0.38 0.00 91 1018.0
20260508075005 8 0 0.0 0.0 0.00 0.41 0.00 91 1018.0
20260508074504 8 0 0.0 0.0 0.00 0.48 0.00 91 1018.0
20260508074005 8 0 0.0 0.0 0.00 0.48 0.00 91 1018.1
20260508073006 8 0 0.0 0.0 0.00 0.48 0.00 91 1017.9
20260508072505 9 0 0.0 4.8 0.00 0.48 0.00 91 1017.8
20260508072005 9 1 1.6 4.8 0.00 0.48 0.00 91 1017.7
20260508071505 9 6 1.6 4.8 0.00 0.48 0.00 92 1017.7
20260508070505 9 0 0.0 0.0 0.00 0.48 0.00 92 1017.7
20260508070005 9 0 0.0 8.0 0.00 0.48 0.00 92 1017.8
20260508065505 9 351 0.0 8.0 0.00 0.48 0.00 92 1017.8
20260508065005 9 347 1.6 4.8 0.00 0.48 0.00 92 1017.8
20260508064505 9 0 0.0 8.0 0.00 0.48 0.00 92 1017.6
20260508064005 9 4 0.0 8.0 0.00 0.48 0.00 92 1017.5
20260508063005 9 0 0.0 0.0 0.00 0.48 0.00 92 1017.6
20260508062505 9 0 0.0 0.0 0.00 0.48 0.00 91 1017.7
20260508062006 9 0 0.0 0.0 0.00 0.48 0.00 91 1017.8
20260508061505 9 0 0.0 0.0 0.00 0.48 0.00 91 1017.8
20260508061005 9 0 0.0 0.0 0.00 0.48 0.00 91 1017.7
20260508055505 9 0 0.0 0.0 0.00 0.48 0.00 91 1017.6
20260508055005 9 0 0.0 0.0 0.00 0.48 0.00 91 1017.6
20260508054005 9 0 0.0 0.0 0.00 0.51 0.00 91 1017.7
20260508053504 9 0 0.0 0.0 0.00 0.51 0.00 91 1017.7
20260508053005 9 0 0.0 0.0 0.00 0.53 0.00 91 1017.8
20260508052505 9 0 0.0 6.4 0.00 0.53 0.00 91 1017.7
20260508052005 9 1 1.6 6.4 0.00 0.53 0.00 91 1017.6
20260508051506 9 0 0.0 0.0 0.00 0.53 0.00 91 1017.6
20260508051005 9 0 0.0 4.8 0.00 0.53 0.00 91 1017.7
20260508050505 9 0 0.0 4.8 0.00 0.56 0.00 91 1017.6
20260508050005 9 309 0.0 3.2 0.00 0.61 0.00 91 1017.4
20260508045505 9 0 0.0 0.0 0.00 0.61 0.00 91 1017.6
20260508045005 9 0 0.0 0.0 0.00 0.61 0.00 91 1017.6
20260508044505 9 0 0.0 0.0 0.00 0.64 0.00 91 1017.7
20260508044005 9 0 0.0 0.0 0.00 0.66 0.00 91 1017.6
20260508043505 9 0 0.0 6.4 0.00 0.66 0.00 91 1017.5
20260508042505 9 0 0.0 0.0 0.00 0.76 0.00 91 1017.5
20260508042005 9 0 0.0 0.0 0.00 0.79 0.00 90 1017.4
20260508041505 9 0 0.0 0.0 0.00 0.79 0.00 90 1017.5
20260508041005 9 0 0.0 0.0 0.00 0.79 0.00 90 1017.4
20260508040505 9 0 0.0 0.0 0.00 0.99 0.00 90 1017.3
20260508040006 10 0 0.0 1.6 0.00 0.99 0.00 90 1017.4
20260508035505 10 0 0.0 1.6 0.00 0.99 0.00 90 1017.4
20260508035005 10 356 0.0 1.6 0.00 1.04 0.00 90 1017.3
20260508034505 10 0 0.0 3.2 0.00 1.07 0.00 90 1017.3
20260508034005 10 0 0.0 3.2 0.00 1.07 0.00 90 1017.3
20260508033505 10 0 0.0 0.0 0.00 1.07 0.00 90 1017.3
20260508033005 10 0 0.0 0.0 0.00 1.07 0.00 90 1017.4
20260508032505 10 0 0.0 0.0 0.00 1.07 0.00 90 1017.3
20260508032005 10 0 0.0 0.0 0.00 1.07 0.00 90 1017.4
20260508031505 10 0 0.0 0.0 0.00 1.07 0.00 89 1017.4
20260508031005 10 0 0.0 0.0 0.00 1.07 0.00 89 1017.3
20260508030505 10 0 0.0 0.0 0.00 1.07 0.00 89 1017.2
20260508030006 10 0 0.0 0.0 0.00 1.07 0.00 88 1017.2
20260508025005 10 0 0.0 0.0 0.00 1.07 1.07 88 1017.3
20260508024505 10 0 0.0 6.4 0.00 1.07 1.07 88 1017.3
20260508024005 10 0 0.0 6.4 0.00 1.07 1.07 87 1017.1
20260508023005 10 0 0.0 8.0 0.00 1.07 1.07 86 1016.8
20260508022005 11 11 1.6 11.3 0.00 1.07 1.07 86 1016.6
20260508021504 11 13 6.4 14.5 0.00 1.07 1.07 86 1016.6
20260508021005 11 12 6.4 14.5 0.00 1.07 1.07 87 1016.5
20260508020505 10 9 8.0 12.9 0.00 1.09 1.07 87 1016.4
20260508020006 10 7 6.4 11.3 0.00 1.14 1.07 87 1016.5
20260508015505 10 0 0.0 6.4 0.00 1.19 1.07 87 1016.6
20260508015005 10 10 1.6 11.3 0.00 1.22 1.07 87 1016.5
20260508014505 10 9 4.8 11.3 0.00 1.22 1.07 87 1016.5
20260508014005 10 5 6.4 11.3 0.00 1.22 1.07 87 1016.4
20260508013505 10 2 3.2 8.0 0.00 1.22 1.07 86 1016.2
20260508013006 10 3 1.6 6.4 0.00 1.22 1.07 86 1016.1
20260508011505 11 10 4.8 8.0 0.00 1.22 1.07 85 1016.1
20260508010505 11 0 0.0 8.0 0.00 1.24 1.07 84 1016.1
20260508010005 11 11 1.6 16.1 0.00 1.24 1.07 83 1016.0
20260508005005 11 13 8.0 14.5 0.00 1.24 1.07 82 1015.8
20260508004504 11 18 8.0 12.9 0.00 1.24 1.07 82 1015.6
20260508004005 11 14 6.4 12.9 0.00 1.24 1.07 82 1015.6
20260508003505 11 11 6.4 14.5 0.00 1.24 1.07 82 1015.5
20260508002005 11 12 8.0 16.1 0.00 1.45 1.07 81 1015.5
20260508001505 12 12 6.4 16.1 0.00 1.47 1.07 81 1015.4
20260508000505 12 15 9.7 19.3 0.00 1.47 1.07 81 1015.1
20260508000005 12 14 8.0 19.3 0.00 1.47 1.07 80 1015.3
20260507235505 12 15 6.4 11.3 0.00 1.47 1.07 80 1015.2
20260507235006 12 13 3.2 11.3 0.00 1.50 1.07 80 1015.2
20260507234004 12 18 8.0 19.3 0.00 1.55 1.07 79 1015.1
20260507233505 12 13 8.0 19.3 0.00 1.60 1.07 79 1015.2
20260507233004 13 13 14.5 19.3 0.00 1.68 1.07 78 1015.2
20260507232504 13 14 6.4 17.7 0.00 1.70 1.07 79 1015.2
20260507232004 13 13 8.0 19.3 0.00 1.73 1.07 79 1015.1
20260507231004 13 9 8.0 16.1 0.00 1.75 1.07 78 1014.9
20260507230005 13 8 9.7 29.0 0.00 1.78 1.07 77 1015.0
20260507225505 13 9 9.7 29.0 0.00 1.83 1.07 78 1014.9
20260507225005 13 11 16.1 27.4 0.00 1.83 1.07 77 1014.8
20260507224505 13 10 16.1 27.4 0.00 1.83 1.07 76 1014.8
20260507223504 13 12 14.5 29.0 0.00 1.83 1.07 78 1014.7
20260507223005 13 13 16.1 29.0 0.00 1.83 1.07 79 1014.6
20260507222005 13 15 17.7 38.6 0.00 1.83 1.07 78 1014.2
20260507221504 13 20 24.1 32.2 0.00 1.83 1.07 77 1014.2
20260507221005 13 15 19.3 32.2 0.00 1.85 1.07 78 1014.1